Overview Statistics Trail Chart Weather Telemetry Raw packets
 

This is the latest recevied weather packets stored in our database for station/object N0QV. If no packets are shown the sender has not sent any weather packets the latest 10 day(s).

<< 35 36 37 38 39 40 41 >>
Time Temp. Humidity Pressure Rain* Wind** Luminosity Snow
1788430262 22.78° C 91% 1010.9 hPa 1.78 mm - 0 W/m² -
1788429939 23.33° C 91% 1010.7 hPa 3.05 mm - 0 W/m² -
1788429638 23.33° C 90% 1010.9 hPa 1.78 mm - 0 W/m² -
1788429336 23.33° C 90% 1011.3 hPa 0 mm - 0 W/m² -
1788429032 23.33° C 90% 1011 hPa 0 mm - 0 W/m² -
1788428731 23.33° C 92% 1010.9 hPa 0 mm - 0 W/m² -
1788428427 23.33° C 92% 1011 hPa 1.27 mm - 0 W/m² -
1788428127 23.33° C 92% 1011 hPa 0 mm - 0 W/m² -
1788427823 23.33° C 93% 1011.2 hPa 0 mm - 0 W/m² -
1788427522 23.33° C 93% 1011 hPa 0 mm - 0 W/m² -
1788427222 23.33° C 93% 1010.7 hPa 0 mm - 0 W/m² -
1788426921 23.33° C 92% 1010.6 hPa 0 mm - 0 W/m² -
1788426615 23.33° C 92% 1010.5 hPa 0 mm - 0 W/m² -
1788426311 23.33° C 92% 1010.4 hPa 0 mm - 0 W/m² -
1788426010 23.33° C 92% 1010.5 hPa 1.78 mm - 0 W/m² -
1788425708 23.33° C 92% 1010.5 hPa 1.78 mm - 0 W/m² -
1788425404 23.33° C 92% 1010.8 hPa 0 mm - 0 W/m² -
1788425102 22.78° C 91% 1010.9 hPa 0 mm - 0 W/m² -
1788424797 22.78° C 91% 1010.7 hPa 0 mm - 0 W/m² -
1788424493 22.78° C 91% 1010.3 hPa 0 mm - 0 W/m² -
1788424192 22.78° C 91% 1010.3 hPa 0 mm - 0 W/m² -
1788423887 22.78° C 91% 1010.4 hPa 0 mm - 0 W/m² -
1788423582 22.78° C 91% 1010.2 hPa 0 mm - 0 W/m² -
1788423277 22.78° C 90% 1010 hPa 0 mm - 0 W/m² -
1788422973 22.78° C 90% 1009.9 hPa 0 mm - 0 W/m² -

* Rain latest hour (hover to see other rain measurements)
** Current wind speed in m/s (hover to see current wind gust speed)